DW5082 Weather Reports


time (UTC)temp
C
wind
direction
speed
KPH
gust
KPH
rain 1hr
cm
rain 24hr
cm
rain mn
cm
humidity
%
barometer
mb
20260504150705 17 210 3.2 19.3 0.00 0.00 0.00 43 1013.2
20260504150205 17 203 3.2 16.1 0.00 0.00 0.00 42 1013.3
20260504141205 15 211 3.2 9.7 0.00 0.00 0.00 46 1013.7
20260504140206 15 232 6.4 19.3 0.00 0.00 0.00 47 1013.7
20260504130705 12 191 4.8 8.0 0.00 0.00 0.00 54 1014.2
20260504130205 12 201 3.2 11.3 0.00 0.00 0.00 56 1014.3
20260504120204 10 188 3.2 11.3 0.00 0.00 0.00 57 1014.6
20260504110705 9 210 1.6 4.8 0.00 0.00 0.00 60 1014.4
20260504110205 9 201 3.2 8.0 0.00 0.00 0.00 60 1014.4
20260504100206 8 236 0.0 4.8 0.00 0.00 0.00 100 1014.0
20260504081704 8 193 1.6 11.3 0.00 0.00 0.00 100 1013.8
20260504081205 8 163 1.6 4.8 0.00 0.00 0.00 100 1013.8
20260504080704 8 220 1.6 9.7 0.00 0.00 0.00 100 1013.7
20260504070205 8 227 1.6 4.8 0.00 0.00 0.00 100 1013.4
20260504060205 8 185 1.6 4.8 0.00 0.00 0.00 100 1013.3
20260504044705 10 212 3.2 8.0 0.00 0.00 0.00 100 1013.1
20260504044204 10 207 0.0 4.8 0.00 0.00 0.00 100 1013.1
20260504043705 10 199 1.6 3.2 0.00 0.00 0.00 100 1013.0
20260504043204 10 207 0.0 4.8 0.00 0.00 0.00 100 1012.9
20260504041705 9 202 0.0 3.2 0.00 0.00 0.00 100 1012.8
20260504041205 9 206 0.0 1.6 0.00 0.00 0.00 100 1012.8
20260504040705 9 227 1.6 4.8 0.00 0.00 0.00 100 1012.7
20260504040205 9 218 1.6 3.2 0.00 0.00 0.00 100 1012.7
20260504034705 9 224 0.0 1.6 0.00 0.00 0.00 100 1012.7
20260504034205 8 219 1.6 3.2 0.00 0.00 0.00 100 1012.7
20260504033704 8 217 0.0 3.2 0.00 0.00 0.00 100 1012.8
20260504031705 7 143 0.0 0.0 0.00 0.00 0.00 100 1012.8
20260504031205 7 143 0.0 0.0 0.00 0.00 0.00 100 1012.8
20260504030704 8 143 0.0 0.0 0.00 0.00 0.00 100 1012.8
20260504030204 8 143 0.0 0.0 0.00 0.00 0.00 100 1012.8
20260504024704 8 143 0.0 0.0 0.00 0.00 0.00 100 1012.8
20260504024205 8 143 0.0 0.0 0.00 0.00 0.00 100 1012.8
20260504023205 8 143 0.0 0.0 0.00 0.00 0.00 100 1012.9
20260504021705 10 143 0.0 0.0 0.00 0.00 0.00 100 1012.9
20260504021204 10 143 0.0 0.0 0.00 0.00 0.00 100 1012.9
20260504020205 11 143 0.0 0.0 0.00 0.00 0.00 100 1012.7
20260504014704 11 143 0.0 0.0 0.00 0.00 0.00 100 1012.6
20260504014205 11 156 0.0 0.0 0.00 0.00 0.00 100 1012.6
20260504013704 11 156 0.0 0.0 0.00 0.00 0.00 100 1012.6
20260504013204 11 156 0.0 0.0 0.00 0.00 0.00 100 1012.5
20260504011705 12 155 0.0 0.0 0.00 0.00 0.00 100 1012.5
20260504010705 12 162 1.6 4.8 0.00 0.00 0.00 100 1012.4
20260504010205 12 224 1.6 4.8 0.00 0.00 0.00 100 1012.3
20260504004704 12 204 0.0 3.2 0.00 0.00 0.00 100 1012.2
20260504004205 12 127 3.2 9.7 0.00 0.00 0.00 100 1012.1
20260504003205 12 216 0.0 4.8 0.00 0.00 0.00 100 1012.0
20260504001705 13 25 1.6 4.8 0.00 0.00 0.00 100 1011.7
20260504000705 13 146 3.2 4.8 0.00 0.00 0.00 100 1011.5
20260504000205 13 158 1.6 8.0 0.00 0.00 0.00 100 1011.5
20260503234704 13 158 1.6 4.8 0.00 0.00 0.00 100 1011.3
20260503234205 13 181 1.6 4.8 0.00 0.00 0.00 100 1011.3
20260503233704 13 199 3.2 8.0 0.00 0.00 0.00 100 1011.2
20260503233205 13 21 1.6 11.3 0.00 0.00 0.00 100 1011.1
20260503231705 14 158 0.0 3.2 0.00 0.00 0.00 100 1011.0
20260503231205 15 190 1.6 9.7 0.00 0.00 0.00 100 1010.9
20260503230704 15 185 1.6 4.8 0.00 0.00 0.00 100 1010.8
20260503230205 15 165 1.6 14.5 0.00 0.00 0.00 100 1010.8
20260503224704 15 109 3.2 11.3 0.00 0.00 0.00 97 1010.6
20260503224205 15 123 1.6 14.5 0.00 0.00 0.00 97 1010.6
20260503223205 15 94 3.2 11.3 0.00 0.00 0.00 99 1010.6
20260503221704 15 199 3.2 12.9 0.00 0.00 0.00 97 1010.7
20260503221204 15 144 3.2 9.7 0.00 0.00 0.00 98 1010.7
20260503220704 15 198 3.2 19.3 0.00 0.00 0.00 97 1010.7
20260503220204 15 165 3.2 12.9 0.00 0.00 0.00 97 1010.7
20260503214704 15 23 4.8 12.9 0.00 0.00 0.00 96 1010.7
20260503214204 15 194 4.8 11.3 0.00 0.00 0.00 97 1010.7
20260503213705 15 129 3.2 9.7 0.00 0.00 0.00 97 1010.7
20260503213204 15 229 6.4 20.9 0.00 0.00 0.00 97 1010.7
20260503210704 15 92 4.8 19.3 0.00 0.00 0.00 96 1010.6
20260503210205 15 99 4.8 12.9 0.00 0.00 0.00 96 1010.5
20260503204704 15 206 3.2 14.5 0.00 0.00 0.00 98 1010.4
20260503204204 15 118 3.2 14.5 0.00 0.00 0.00 97 1010.6
20260503203704 15 194 3.2 22.5 0.00 0.00 0.00 99 1010.6
20260503203204 15 110 3.2 16.1 0.00 0.00 0.00 99 1010.5
20260503201705 13 143 3.2 14.5 0.00 0.00 0.00 100 1010.6
20260503201205 13 227 3.2 11.3 0.00 0.00 0.00 100 1010.6
20260503200704 13 47 3.2 19.3 0.00 0.00 0.00 100 1010.7
20260503200204 13 277 4.8 19.3 0.00 0.00 0.00 100 1010.7
20260503194205 13 195 6.4 12.9 0.00 0.00 0.00 100 1010.8
20260503193705 13 56 4.8 12.9 0.00 0.00 0.00 100 1010.9
20260503191204 13 112 3.2 22.5 0.00 0.00 0.00 100 1011.2
20260503190704 13 141 3.2 19.3 0.00 0.00 0.00 100 1011.0
20260503190205 13 204 1.6 20.9 0.00 0.00 0.00 100 1011.2
20260503184204 12 28 1.6 11.3 0.00 0.00 0.00 100 1011.4
20260503183704 12 214 1.6 9.7 0.00 0.00 0.00 100 1011.4
20260503183204 12 199 3.2 16.1 0.00 0.00 0.00 100 1011.5
20260503181704 12 89 3.2 12.9 0.00 0.00 0.00 100 1011.6
20260503181204 12 170 8.0 16.1 0.00 0.00 0.00 100 1011.5
20260503180205 12 154 3.2 20.9 0.00 0.00 0.00 100 1011.6
20260503174704 12 186 4.8 16.1 0.00 0.00 0.00 100 1011.6
20260503174205 12 186 6.4 20.9 0.00 0.00 0.00 100 1011.7
20260503173705 11 92 3.2 19.3 0.00 0.00 0.00 100 1011.6
20260503173205 11 272 4.8 19.3 0.00 0.00 0.00 100 1011.7
20260503171705 11 43 3.2 14.5 0.00 0.00 0.00 100 1011.9
20260503171204 11 224 3.2 19.3 0.00 0.00 0.00 100 1011.9
20260503170704 11 173 8.0 14.5 0.00 0.00 0.00 100 1011.9
20260503170204 11 156 3.2 16.1 0.00 0.00 0.00 100 1011.8